• MPC Preparation (Info)

  • MPEC 2013-L26 : 2013 LC2

    The following Minor Planet Electronic Circular may be linked-to from your own Web pages, but must not otherwise be redistributed electronically.

    A form allowing access to any MPEC is at the bottom of this page.


    Read MPEC 2013-L25 Read MPEC 2013-L27


    M.P.E.C. 2013-L26                                Issued 2013 June 5, 18:50 UT
    
         The Minor Planet Electronic Circulars contain information on unusual
             minor planets and routine data on comets.  They are published
       on behalf of Commission 20 of the International Astronomical Union by the
              Minor Planet Center, Smithsonian Astrophysical Observatory,
                              Cambridge, MA 02138, U.S.A.
    
                 Prepared using the Tamkin Foundation Computer Network
    
                                  MPC@CFA.HARVARD.EDU
                URL https://www.minorplanetcenter.net/    ISSN 1523-6714
    
                                       2013 LC2
    
    Observations:
         K13L02C* C2013 06 04.23863 13 58 48.90 +27 24 12.3          20.0 VuEL026703
         K13L02C  C2013 06 04.24765 13 58 50.59 +27 23 34.9          20.2 VuEL026703
         K13L02C  C2013 06 04.25668 13 58 52.42 +27 22 57.6          20.1 VuEL026703
         K13L02C  C2013 06 04.26571 13 58 54.08 +27 22 19.6          19.4 VuEL026703
         K13L02C  C2013 06 04.28345 13 58 57.44 +27 21 06.2          19.7 VuEL026703
         K13L02C  C2013 06 04.29284 13 58 59.34 +27 20 26.3          19.6 VuEL026703
         K13L02C  C2013 06 04.30226 13 59 01.09 +27 19 46.8          20.3 VuEL026703
         K13L02C KC2013 06 04.90210 14 01 14.47 +26 37 38.9          20.4 VqEL026C43
         K13L02C KC2013 06 04.90565 14 01 15.12 +26 37 23.8          20.2 VqEL026C43
         K13L02C KC2013 06 04.91028 14 01 16.05 +26 37 03.9          19.5 VqEL026C43
         K13L02C KC2013 06 04.93072714 01 20.79 +26 35 44.9          19.5 VuEL026I93
         K13L02C KC2013 06 04.93771714 01 22.17 +26 35 15.0          20.1 VuEL026I93
         K13L02C KC2013 06 04.94470714 01 23.59 +26 34 44.7          19.4 VuEL026I93
         K13L02C KC2013 06 04.95622 14 01 26.21 +26 33 47.2                qEL026J95
         K13L02C KC2013 06 04.95995 14 01 26.98 +26 33 30.9                qEL026J95
         K13L02C KC2013 06 04.96360 14 01 27.70 +26 33 15.0          19.7 RqEL026J95
         K13L02C KC2013 06 05.09443 14 01 58.22 +26 24 07.3                uEL026932
         K13L02C KC2013 06 05.10800 14 02 00.98 +26 23 08.4          19.1 VuEL026932
         K13L02C KC2013 06 05.12255 14 02 03.86 +26 22 04.7          19.2 VuEL026932
         K13L02C KC2013 06 05.19722 14 02 20.89 +26 16 53.3          20.4 RqEL026448
         K13L02C KC2013 06 05.21406 14 02 24.24 +26 15 39.0          19.5 RqEL026448
         K13L02C KC2013 06 05.23174 14 02 27.75 +26 14 22.0          19.3 RqEL026448
         K13L02C  C2013 06 05.30753 14 02 43.40 +26 08 45.8          20.1 RcEL026854
         K13L02C  C2013 06 05.31341 14 02 44.50 +26 08 21.0          20.0 RcEL026854
         K13L02C  C2013 06 05.32289 14 02 46.69 +26 07 37.5          19.9 RcEL026854
    
    Observer details:
    448 Desert Moon Observatory.  Observer B. L. Stevens.  0.3-m
        Schmidt-Cassegrain + CCD.
    703 Catalina Sky Survey.  Observer R. A. Kowalski.  Measurers A. Boattini,
        E. J. Christensen, A. R. Gibbs, A. D. Grauer, R. E. Hill, J. A. Johnson,
        R. A. Kowalski, S. M. Larson, R. H. McNaught, F. C. Shelly.  0.68-m
        Schmidt + CCD.
    854 Sabino Canyon Observatory, Tucson.  Observer J. E. McGaha.  0.36-m f/10.0
        Schmidt-Cassegrain + CCD.
    932 John J. McCarthy Obs., New Milford.  Observer M. Polansky.  0.4-m f/5
        Schmidt-Cassegrain + CCD.
    C43 Hoyerswerda.  Observer P. Lindner.  0.30-m f/6.3 Schmidt-Cassegrain + CCD.
    I93 St Pardon de Conques.  Observer F. Losse.  0.40-m f/3.7 reflector + CCD.
    J95 Great Shefford.  Observer P. Birtwhistle.  0.40-m f/6.0 Schmidt-Cassegrain
        + CCD.
    
    Orbital elements:
    2013 LC2                                                 Earth MOID = 0.0777 AU
    Epoch 2013 Apr. 18.0 TT = JDT 2456400.5                 MPC
    M 341.94917              (2000.0)            P               Q
    n   0.37555730     Peri.  154.91241     -0.34456600     +0.92452463
    a   1.9026194      Node    94.58520     -0.88650723     -0.26337292
    e   0.4344251      Incl.    9.40422     -0.30883524     -0.27547941
    P   2.62           H   22.2           G   0.15           U   8
    Residuals in seconds of arc
    130604 703  0.4+  0.2-    130604 C43  0.0   0.2+    130605 932  0.4+  0.2-
    130604 703  0.0   0.1-    130604 I93  0.5-  0.0     130605 448  0.7-  0.4+
    130604 703  1.4+  0.1+    130604 I93  0.8-  0.2+    130605 448  0.4-  0.3-
    130604 703  0.4+  0.2-    130604 I93  0.6-  0.2+    130605 448  0.3-  0.3+
    130604 703  0.5-  0.7+    130604 J95  0.2-  0.1-    130605 854  0.9+  0.2-
    130604 703  0.4+  0.3+    130604 J95  0.1-  0.3-    130605 854  0.5-  1.4+
    130604 703  0.8-  0.4+    130604 J95  0.4-  0.4-    130605 854  2.6+  0.4+
    130604 C43  1.1+  0.1-    130605 932  0.0   0.4+
    130604 C43  0.1+  0.1+    130605 932  0.8+  0.2+
    
    Ephemeris:
    2013 LC2                 a,e,i = 1.90, 0.43, 9                   q = 1.0761
    Date    TT    R. A. (2000) Decl.     Delta      r     Elong.  Phase     V
    2013 05 06    13 02 15.4 +41 48 49   0.2202  1.1243   116.5    53.4    21.1
    ...
    2013 05 21    13 20 24.4 +38 02 19   0.1730  1.0885   111.9    59.6    20.7
    ...
    2013 05 29    13 38 59.3 +33 16 24   0.1475  1.0788   112.6    60.1    20.4
    ...
    2013 06 04    13 57 58.7 +27 40 32   0.1295  1.0761   115.3    58.5    20.0
    2013 06 05    14 01 37.2 +26 31 14   0.1266  1.0761   116.0    58.0    20.0
    2013 06 06    14 05 24.4 +25 17 36   0.1239  1.0761   116.7    57.4    19.9
    ...
    2013 06 12    14 31 20.3 +16 14 34   0.1095  1.0787   122.8    52.3    19.5
    ...
    2013 06 20    15 14 40.6 -00 20 37   0.09899 1.0883   135.0    41.4    19.0
    ...
    2013 07 05    16 52 55.5 -31 16 42   0.1205  1.1239   151.4    25.7    19.0
    
    A. U. Tomatic                (C) Copyright 2013 MPC           M.P.E.C. 2013-L26
    

    Read MPEC 2013-L25 Read MPEC 2013-L27


    MPEC number:

    Enter an MPEC number in one of the following forms:

    • 1997-B01 (the full form)
    • J97B01 (the packed version of the full form)
    • B01 (the abbreviated form)